Location: Ermatingen
(47.6706°N, 9.0857°E)
Time: 15:27:36
(UTC+00:00)

Cosmos 1603 - Pass Details

Date: 18 September 2020
Orbit: 832 x 858 km, 71.0° (Epoch: 24 October)

Event Time Altitude Azimuth Distance (km) Brightness Sun altitude
Rises 18:21:38 0° 330° (NNW) 3,421 7.6 -9.6°
Reaches altitude 10° 18:24:07 10° 327° (NNW) 2,477 6.8 -10.0°
Maximum altitude 18:29:44 64° 248° (WSW) 933 4.2 -10.9°
Drops below altitude 10° 18:35:15 10° 168° (SSE) 2,444 5.8 -11.8°
Sets 18:37:42 0° 165° (SSE) 3,371 6.5 -12.2°
